Location: Burera
(21.3780°N, 81.9534°E)
Time: 11:54:14
(UTC+00:00)

SAR-Lupe-4 - Pass Details

Date: 13 August 2020
Orbit: 481 x 485 km, 98.2° (Epoch: 16 September)

Event Time Altitude Azimuth Distance (km) Brightness Sun altitude
Rises 23:35:47 0° 184° (S) 2,526 7.0 -8.5°
Reaches altitude 10° 23:37:58 10° 194° (SSW) 1,649 5.9 -8.0°
Maximum altitude 23:41:12 34° 260° (W) 814 4.2 -7.3°
Drops below altitude 10° 23:44:27 10° 326° (NNW) 1,655 6.1 -6.6°
Sets 23:46:39 0° 336° (NNW) 2,536 7.2 -6.1°
